Location: Lamoine Observatory
(44.4551°N, 68.3470°W)
Time: 06:27:04
(UTC-04:00)

Daily predictions for brighter satellites

Satellite Brightness Start Highest point End
(mag) Time Altitude Azimuth Time Altitude Azimuth Time Altitude Azimuth
ATLAS CENTAUR R/B 1.7 18:46:19 10° NW 18:50:35 71° WSW 18:54:29 10° SSE
Cosmos 1624 Rocket 4.0 18:46:02 10° NNW 18:51:17 81° ENE 18:56:29 10° SSE
ATLAS 5 CENTAUR R/B 3.0 18:47:37 10° SSE 18:51:21 23° ESE 18:55:17 10° ENE
USA 215 3.7 18:47:35 10° ENE 18:53:45 43° SE 18:59:53 10° SSW
Okean 3 Rocket 3.6 18:49:14 10° N 18:53:47 71° E 18:58:19 10° SSE
SAR-Lupe-1 4.0 18:51:21 10° SSE 18:54:53 69° ENE 18:58:27 10° N
Cosmos 1766 3.7 18:51:23 10° SSE 18:55:07 42° E 18:58:54 10° NNE
Resurs 01 Rocket 2.2 18:52:13 10° SE 18:56:20 39° ENE 19:00:29 10° N
Aureole 2 Rocket 3.3 18:52:09 10° S 18:56:21 46° ESE 19:00:29 10° NNE
Cosmos 1980 4.1 18:51:18 10° SW 18:56:55 69° WNW 19:02:36 10° NNE
Resurs 1-3 4.4 18:54:15 10° SE 18:58:08 32° ENE 19:02:02 10° N
HJ-1C 4.0 18:57:56 10° SE 19:01:02 36° ENE 19:04:11 10° N
SL-16 R/B 2.3 18:57:04 10° S 19:02:37 57° ESE 19:08:12 10° NNE
Meteor 1-29 3.9 19:07:16 10° NE 19:10:22 28° E 19:13:26 10° SSE
Cosmos 1072 Rocket 4.4 19:05:01 10° S 19:11:00 63° E 19:17:02 10° NNE
ATLAS 3B R/B 4.0 19:04:02 10° WSW 19:11:15 44° NW 19:18:14 10° NNE
Cosmos 292 Rocket 4.4 19:07:07 10° SSW 19:11:52 62° WNW 19:16:40 10° NNE
Cosmos 1953 2.9 19:12:15 10° SSE 19:15:51 33° E 19:19:27 10° NNE
Spot 1 4.2 19:12:42 10° SSE 19:17:28 77° ENE 19:21:58 10° N
SeaSat 1 3.7 19:16:20 10° ENE 19:19:42 18° ESE 19:23:03 10° SSE
Cosmos 1452 Rocket 3.6 19:15:24 10° NNW 19:20:37 59° ENE 19:25:47 10° SE
Helios 1A 3.0 19:17:23 10° SSE 19:21:31 63° ENE 19:25:41 10° N
Cosmos 2219 Rocket 4.0 19:17:31 10° WSW 19:22:33 33° NW 19:27:39 10° N
METEOR-M 4.1 19:18:08 10° SSE 19:23:29 84° ENE 19:28:53 10° NNW
COSMO-SKYMED 1 4.2 19:20:57 10° N 19:25:00 39° WNW 19:29:02 10° SW
Cosmos 2278 Rocket 4.1 19:20:49 10° NW 19:25:46 32° WSW 19:30:41 10° SSW
Cosmos 1805 3.5 19:23:23 10° SSE 19:27:07 43° E 19:30:53 10° NNE
Meteor 1-22 Rocket 4.3 19:22:27 10° SSW 19:27:48 78° W 19:33:06 10° N
NOSS 3-2 (A) 3.4 19:21:57 10° SSW 19:28:01 75° ESE 19:34:41 10° NE
Cosmos 1378 3.6 19:24:38 10° NNW 19:28:21 63° W 19:32:02 10° S
H-2A R/B 3.5 19:25:54 15° SE 19:28:36 33° ENE 19:32:06 10° N
Meteor 1-28 Rocket 3.6 19:27:00 10° N 19:30:42 65° WNW 19:34:22 10° SSW
Cosmos 2297 4.3 19:25:15 10° NNW 19:30:50 59° WSW 19:36:20 10° S
Cosmos 1544 3.8 19:27:33 10° SSE 19:30:53 31° E 19:34:14 10° NNE
ALOS 2.5 19:26:55 10° SE 19:31:25 50° ENE 19:35:56 10° N
FENGYUN 3A 3.8 19:27:01 10° SE 19:32:13 52° ENE 19:37:27 10° N
ATLAS CENTAUR R/B 3.8 19:28:34 10° SSW 19:33:50 74° SE 19:51:14 10° NE
CZ-4B DEB 3.1 19:33:12 18° SE 19:35:20 45° ENE 19:38:29 10° N
CZ-4C R/B 3.4 19:31:40 10° WSW 19:36:52 44° NW 19:42:46 10° NNE
Cosmos 1420 Rocket 4.2 19:38:33 10° NNW 19:43:45 53° ENE 19:47:17 20° SE
Cosmos 2369 Rocket 3.1 19:39:52 10° N 19:44:53 31° NE 19:47:05 24° E
TELKOM 3 3.4 19:42:30 10° WNW 19:45:10 48° NNE 19:45:22 46° NE
Cosmos 2034 Rocket 3.9 19:39:13 10° S 19:45:28 79° E 19:51:49 10° N
Cosmos 1766 Rocket 3.7 19:41:49 10° NNW 19:46:13 76° W 19:50:33 10° S
Cosmos 1464 Rocket 4.2 19:41:48 10° SSW 19:48:03 76° W 19:54:16 10° N
Cosmos 1470 3.7 19:49:12 28° ENE 19:49:12 28° ENE 19:52:00 10° NNE
Cosmos 1603 3.8 19:44:16 10° S 19:49:49 53° ESE 19:55:24 10° NE
Cosmos 1943 Rocket 3.7 19:48:37 10° N 19:52:30 19° NE 19:53:44 17° ENE
H-2A R/B 4.2 19:54:38 12° NE 19:54:38 12° NE 19:55:47 10° NNE
Cosmos 1758 3.4 19:53:13 10° SSW 19:57:17 79° W 20:01:25 10° N
Cosmos 1269 Rocket 4.1 19:55:05 10° S 20:00:12 53° ESE 20:05:21 10° NNE
USA 186 3.7 20:03:16 14° N 20:03:16 14° N 20:03:40 10° N
Spot 2 Rocket 4.5 19:57:36 10° S 20:02:27 47° W 20:07:20 10° NNW
ASTEX 1 3.2 19:59:35 10° N 20:04:31 72° E 20:09:24 10° S
Cosmos 1048 Rocket 4.1 19:59:36 10° S 20:04:42 50° ESE 20:09:46 10° NNE
Helios 1B rocket 3.3 20:00:49 10° N 20:04:49 52° WNW 20:08:49 10° SSW
CENTAUR R/B 3.1 20:00:23 10° S 20:05:39 32° ESE 20:05:41 32° ESE
NOSS 3-2 (C) 3.6 19:59:32 10° SW 20:05:40 80° NW 20:12:26 10° NE
Cosmos-2242 3.4 20:05:20 10° SSW 20:09:40 67° W 20:14:03 10° N
CZ-4B DEB 4.4 20:10:43 54° SSE 20:11:29 87° ENE 20:15:07 10° NNW
SL-8 R/B 4.4 20:07:47 10° SSW 20:11:41 35° SSE 20:11:41 35° SSE
Envisat 3.6 20:13:04 36° ENE 20:13:17 36° ENE 20:17:54 10° N
Cosmos 1674 2.6 20:12:24 10° N 20:16:19 86° E 20:16:58 61° SSE
SJ-11-01 4.5 20:16:04 47° E 20:16:22 48° ENE 20:20:53 10° N
Cosmos 1842 Rocket 3.3 20:18:05 29° S 20:20:14 76° E 20:24:37 10° NNE
Cosmos 1500 Rocket 3.5 20:16:02 10° N 20:20:29 89° E 20:21:56 43° S
Cosmos 1939 Rocket 4.1 20:23:46 30° NNE 20:23:46 30° NNE 20:26:13 10° N
Cosmos 2151 3.5 20:20:46 10° N 20:24:01 43° NE 20:24:01 43° NE
Resurs 01 Rocket 4.1 20:29:30 10° SW 20:32:57 22° W 20:36:24 10° NW
SPOT 5 4.4 20:36:13 19° NNE 20:36:13 19° NNE 20:37:54 10° N
ATLAS 5 CENTAUR R/B 2.6 20:30:50 10° SW 20:35:35 53° NW 20:40:47 10° NNE
USA 215 3.6 20:30:29 10° NE 20:36:57 65° NNW 20:43:23 10° WSW
Cosmos 2058 4.4 20:34:23 10° N 20:36:26 27° NNE 20:36:26 27° NNE
SL-16 R/B 4.3 20:42:24 10° WSW 20:47:06 26° NW 20:51:51 10° N
ERS-1 Rocket 2.9 20:54:54 83° NW 20:54:54 83° NW 20:59:48 10° NNW
Cosmos 1110 Rocket 4.2 20:50:01 10° NNW 20:54:39 62° NNE 20:54:39 62° NNE
Cosmos 1655 Rocket 3.8 20:50:14 10° N 20:56:30 81° E 20:57:04 73° SE
SeaSat 1 2.7 20:52:42 10° NNE 20:57:37 66° WNW 21:02:30 10° SW
Cosmos 2279 Rocket 4.1 20:59:21 59° NE 20:59:21 59° NE 21:04:38 10° NNE
UNK 4.4 20:39:11 10° WNW 20:59:18 70° N 21:00:45 55° ENE
GP-B 3.9 20:56:42 10° N 21:01:00 48° W 21:01:21 47° W
BREEZE-M DEB (TANK) 3.1 20:53:16 10° WNW 21:02:29 82° WNW 21:02:29 82° WNW
Cosmos 839 Rocket 4.2 20:59:55 10° NW 21:07:41 76° WSW 21:08:43 64° S
SL-24 R/B - RUBIN 2 4.5 21:09:24 10° NNW 21:15:45 73° NNE 21:15:45 73° NNE
Cosmos 2026 Rocket 4.2 21:12:01 10° NNW 21:18:01 64° W 21:18:46 59° SW
Cosmos 2369 Rocket 3.0 21:23:43 10° NW 21:28:54 44° WSW 21:28:54 44° WSW
H-2A R/B 4.1 21:31:47 24° NNW 21:31:47 24° NNW 21:33:38 10° NNW
Cosmos 1943 4.5 21:33:10 32° N 21:33:10 32° N 21:36:17 10° NNE
CZ-3A R/B 4.5 21:02:32 10° SSW 21:32:25 58° SE 21:32:25 58° SE
Cosmos 1943 Rocket 3.0 21:31:21 10° NNW 21:35:15 46° NNW 21:35:15 46° NNW
Terra 4.5 21:48:03 12° N 21:48:03 12° N 21:48:29 10° N
H-2A R/B 4.2 21:53:25 18° N 21:53:25 18° N 21:54:44 10° N
CENTAUR R/B 3.7 21:49:50 10° WSW 21:59:44 26° NNE 22:02:49 10° NNE
